DL8BNG-13 Weather Reports


time (UTC)temp
F
wind
direction
speed
knots
gust
knots
rain 1hr
in
rain 24hr
in
rain mn
in
humidity
%
barometer
mb
20260507044502 50 185 2.6 0.0 0.00 0.00 0.22 88
20260507043002 49 162 2.6 0.0 0.00 0.00 0.22 88
20260507041502 49 22 1.7 0.0 0.00 0.00 0.22 89
20260507040003 49 160 1.7 0.0 0.00 0.00 0.21 89
20260507034503 50 100 0.0 0.0 0.00 0.00 0.20 89
20260507033003 50 130 1.7 0.0 0.00 0.00 0.19 89
20260507031503 50 212 2.6 0.0 0.00 0.00 0.19 89
20260507030003 50 212 3.5 0.0 0.00 0.00 0.19 89
20260507024503 50 202 2.6 0.0 0.00 0.00 0.17 89
20260507023003 50 125 1.7 0.0 0.00 0.00 0.17 89
20260507021502 50 185 1.7 0.0 0.00 0.00 0.16 88
20260507020003 51 210 3.5 0.0 0.00 0.00 0.16 88
20260507014503 51 172 3.5 0.0 0.00 0.00 0.15 88
20260507013003 51 195 1.7 0.0 0.00 0.00 0.15 88
20260507011502 51 180 4.3 0.0 0.00 0.00 0.15 88
20260507010003 52 202 5.2 0.0 0.00 0.00 0.15 88
20260507004502 52 212 3.5 0.0 0.00 0.00 0.15 88
20260507003001 52 195 2.6 0.0 0.00 0.00 0.14 88
20260507001503 53 190 2.6 0.0 0.00 0.00 0.14 88
20260507000003 53 185 2.6 0.0 0.00 0.00 0.14 89
20260506234502 53 195 0.0 0.0 0.00 0.00 0.14 88
20260506233003 53 202 0.0 0.0 0.00 0.00 0.13 88
20260506231503 53 160 0.0 0.0 0.00 0.00 0.13 87
20260506230002 54 195 0.0 0.0 0.00 0.00 0.11 87
20260506224502 54 210 0.0 0.0 0.00 0.00 0.08 86
20260506223002 54 195 1.7 0.0 0.00 0.00 0.06 85
20260506221504 55 262 2.6 0.0 0.00 0.00 0.03 83
20260506220004 56 190 1.7 0.0 0.00 0.00 0.05 80
20260506214502 56 190 0.0 0.0 0.00 0.00 0.05 79
20260506213002 56 185 2.6 0.0 0.00 0.00 0.05 79
20260506211502 56 225 2.6 0.0 0.00 0.00 0.05 80
20260506210002 56 195 0.0 0.0 0.00 0.00 0.05 80
20260506204503 56 185 0.0 0.0 0.00 0.00 0.05 80
20260506203002 56 177 2.6 0.0 0.00 0.00 0.05 79
20260506201502 56 190 3.5 0.0 0.00 0.00 0.05 79
20260506200002 57 235 11.3 0.0 0.00 0.00 0.05 76
20260506194502 57 217 3.5 0.0 0.00 0.00 0.05 74
20260506193002 57 202 3.5 0.0 0.00 0.00 0.05 74
20260506191503 57 215 3.5 0.0 0.00 0.00 0.05 74
20260506190002 58 235 2.6 0.0 0.00 0.00 0.05 73
20260506184504 58 227 3.5 0.0 0.00 0.00 0.05 72
20260506183001 59 215 4.3 0.0 0.00 0.00 0.05 70
20260506181502 60 222 3.5 0.0 0.00 0.00 0.05 67
20260506180003 61 245 5.2 0.0 0.00 0.00 0.05 63
20260506174503 62 195 3.5 0.0 0.00 0.00 0.05 62
20260506173003 62 200 3.5 0.0 0.00 0.00 0.05 61
20260506171501 62 235 5.2 0.0 0.00 0.00 0.05 62
20260506170003 63 225 3.5 0.0 0.00 0.00 0.05 63
20260506164503 63 215 2.6 0.0 0.00 0.00 0.05 63
20260506163003 63 205 2.6 0.0 0.00 0.00 0.05 62
20260506161502 63 195 5.2 0.0 0.00 0.00 0.05 62
20260506160003 64 165 3.5 0.0 0.00 0.00 0.05 59
20260506154502 64 170 4.3 0.0 0.00 0.00 0.05 58
20260506153003 65 185 5.2 0.0 0.00 0.00 0.05 56
20260506151503 67 155 2.6 0.0 0.00 0.00 0.05 51
20260506150002 67 275 2.6 0.0 0.00 0.00 0.05 51
20260506144502 68 210 2.6 0.0 0.00 0.00 0.05 49
20260506143002 68 210 2.6 0.0 0.00 0.00 0.05 51
20260506141502 67 192 2.6 0.0 0.00 0.00 0.05 52
20260506140003 68 167 2.6 0.0 0.00 0.00 0.05 51
20260506134502 69 200 3.5 0.0 0.00 0.00 0.05 50
20260506133002 70 210 5.2 0.0 0.00 0.00 0.05 47
20260506131502 69 190 3.5 0.0 0.00 0.00 0.05 48
20260506130003 70 205 3.5 0.0 0.00 0.00 0.05 46
20260506124503 71 230 4.3 0.0 0.00 0.00 0.05 47
20260506123003 70 182 5.2 0.0 0.00 0.00 0.05 48
20260506121502 68 195 2.6 0.0 0.00 0.00 0.05 51
20260506120001 68 202 2.6 0.0 0.00 0.00 0.05 50
20260506114502 68 227 4.3 0.0 0.00 0.00 0.05 51
20260506113003 68 192 6.1 0.0 0.00 0.00 0.05 51
20260506111503 68 192 4.3 0.0 0.00 0.00 0.05 54
20260506104502 68 240 3.5 0.0 0.00 0.00 0.05 57
20260506103003 66 160 1.7 0.0 0.00 0.00 0.05 59
20260506101503 65 227 5.2 0.0 0.00 0.00 0.05 60
20260506100003 65 187 3.5 0.0 0.00 0.00 0.05 62
20260506094503 66 205 3.5 0.0 0.00 0.00 0.05 60
20260506093002 66 210 2.6 0.0 0.00 0.00 0.05 58
20260506091503 66 222 3.5 0.0 0.00 0.00 0.05 59
20260506090002 65 220 2.6 0.0 0.00 0.00 0.05 64
20260506084502 64 192 4.3 0.0 0.00 0.00 0.05 62
20260506083002 64 202 3.5 0.0 0.00 0.00 0.05 64
20260506081503 64 215 3.5 0.0 0.00 0.00 0.05 67
20260506073002 61 200 1.7 0.0 0.00 0.00 0.05 73
20260506071502 60 200 5.2 0.0 0.00 0.00 0.05 75
20260506061503 58 195 2.6 0.0 0.00 0.00 0.05 81